Regional Weather Roundup
Issued by NWS

Home | Current Version | Previous Version | Text Only | Print | Product List | Glossary On
Versions: 1 2 3 4 5 6 7 8 9 10 11 12 13 14 15 16 17 18 19 20 21 22 23 24 25 26 27 28 29 30 31 32 33 34 35 36 37 38 39 40 41 42 43 44 45 46 47 48 49 50
000
ASUS42 KTBW 221010
RWRFL
FLORIDA REGIONAL WEATHER ROUNDUP
NATIONAL WEATHER SERVICE TAMPA BAY RUSKIN FL
600 AM EDT FRI AUG 22 2014

NOTE: "FAIR" INDICATES FEW OR NO CLOUDS BELOW 12,000 FEET WITH NO
SIGNIFICANT WEATHER AND/OR OBSTRUCTIONS TO VISIBILITY.


FLZ001>010-012>015-112-114-115-221100-
PANHANDLE FLORIDA

CITY           SKY/WX    TMP DP  RH WIND       PRES   REMARKS
PENSACOLA      MOCLDY    78  75  90 NW7       30.06R
PENSACOLA NAS  PTCLDY    78  75  90 NW3       30.06R
MILTON NAS     MOCLDY    76  74  93 NW7       30.07S
CRESTVIEW      CLEAR     75  73  93 CALM      30.08R
DUKE FIELD     FAIR      77  76  99 NW6       30.07R
VALPARAISO     PTCLDY    78  75  90 NW5       30.06R
MARY ESTHER    PTCLDY    79  71  77 N6        30.05R
TRI COUNTY     FAIR      74  74 100 CALM      30.07R FOG
PANAMA CITY    FAIR      76  73  91 CALM      30.05R
TYNDALL AFB    CLEAR     77  77 100 N2        30.06R
APALACHICOLA   CLEAR     78  75  90 CALM      30.05R

STATION/POSITION SKY/WX   TEMP    WIND        PRES    WAVE   SWELL
                          AIR SEA DIR/SP/G            HT/PER HT/PER
                          (F)     (DEG/KT/KT) (MB)    (FT/S) (FT/S)
30.1N   87.6W              85 86  290/ 10/ 12 1017.9R   1
29.2N   88.2W              85 88  290/  6/  8 1018.3R
28.8N   86.0W              85 88  320/  4/  6 1017.8R   1/ 8
PANAMA CITY BEAC           80 83  340/  4/  4 1017.7R
CAPE SAN BLAS    NOT AVBL
TOWER C                    83     330/  5/  5 1017.7R
28.5N   84.5W              85 87  340/  4/  4 1017.9R   1/ 8

$$
FLZ011-016>038-118-127-128-134-139-239-221100-
NORTH FLORIDA

CITY           SKY/WX    TMP DP  RH WIND       PRES   REMARKS
MARIANNA       CLEAR     75  75 100 CALM      30.05R
TALLAHASSEE    CLEAR     75  72  90 CALM      30.05S
PERRY          CLEAR     72  72 100 CALM      30.06S FOG
CROSS CITY       N/A     75  72  90 CALM      30.06R
GAINESVILLE    CLEAR     73  72  96 CALM      30.07S
MAYPORT NAS    PTCLDY    79  73  82 SW5       30.04S
JACKSONVILLE   CLEAR     73  73 100 W5        30.04S
JAX NAS        PTCLDY    78  72  81 W8        30.05S
JAX CRAIG      CLEAR     78  73  84 W3        30.05R
JAX CECIL      CLEAR     72  72 100 CALM      30.06S
FERNANDINA BEA FAIR      77  72  83 W5        30.03R
ST AUGUSTINE   CLEAR    N/A N/A N/A W7        30.06S

STATION/POSITION SKY/WX   TEMP    WIND        PRES    WAVE   SWELL
                          AIR SEA DIR/SP/G            HT/PER HT/PER
                          (F)     (DEG/KT/KT) (MB)    (FT/S) (FT/S)
SHELL POINT                79      CALM  /  2   N/A
KEATON BEACH               75      80/  3/  4 1017.9R
CEDAR KEY                  83      10/  1/  3 1018.2F
FERNANDINA                 77 85  250/  7/  9 1016.7R
30.7N   81.3W                 82                N/A     2/ 3
MAYPORT                    79 84  260/  7/  9   N/A
31.4N   80.9W              84 85  280/  8/  8 1016.4F   1/ 3
ST AUGUSTINE               76     250/  5/  7 1018.4R

$$
FLZ040-043>046-052-053-057-058-063-144-221100-
INTERIOR CENTRAL FLORIDA

CITY           SKY/WX    TMP DP  RH WIND       PRES   REMARKS
OCALA          CLEAR     72  70  94 CALM      30.07S
LEESBURG       CLEAR     78  74  87 CALM      30.08R
SANFORD        CLEAR     75  73  93 NW3       30.06R
ORLANDO EXEC   PTCLDY    79  74  84 CALM      30.06R
ORLANDO INTL   PTCLDY    77  74  90 CALM      30.06R
WINTER HAVEN   CLEAR     77  72  84 CALM      30.07R
LAKELAND       PTCLDY    79  72  78 CALM      30.07R
BARTOW         FAIR      73  73 100 CALM      30.07S
OKEECHOBEE       N/A     73  73 100 MISG      30.05S

$$
FLZ041-047-054-059-064-141-147-221100-
EAST CENTRAL FLORIDA

CITY           SKY/WX    TMP DP  RH WIND       PRES   REMARKS
DAYTONA BEACH  PTCLDY    75  72  90 CALM      30.07R
DELAND         SUNNY     73  72  94 CALM      30.07S
JFK SPACE CTR  CLEAR     79 N/A N/A SW2       30.05S
CAPE CANAVERAL CLEAR     78  75  92 S1        30.05S
PATRICK AFB    CLEAR     80  78  93 SW6       30.06R
MELBOURNE      CLEAR     78  76  93 CALM      30.06R
VERO BEACH     PTCLDY    75  73  93 NW3       30.06R
FT PIERCE      CLEAR     75  73  93 CALM      30.06R
STUART           N/A     77  75  94 CALM      30.06S

STATION/POSITION SKY/WX   TEMP    WIND        PRES    WAVE   SWELL
                          AIR SEA DIR/SP/G            HT/PER HT/PER
                          (F)     (DEG/KT/KT) (MB)    (FT/S) (FT/S)
28.5N   80.2W              83 84  230/ 10/ 12 1017.9R
28.9N   78.5W              84 86  200/  8/ 10 1017.9R   2/ 6   2/ 6
TRIDENT PIER               81 83  210/  4/  5 1017.3R
28.4N   80.5W                 82                N/A     1/ 8
27.6N   80.2W                 82                N/A     1/ 9

$$
FLZ050-056-061-142-242-148-248-149-249-151-251-155-255-
160-260-221100-
WEST CENTRAL FLORIDA

CITY           SKY/WX    TMP DP  RH WIND       PRES   REMARKS
CRYSTAL RIVER  FAIR      72  70  94 CALM      30.07S
INVERNESS      FAIR      72  68  88 CALM      30.08R HAZE
BROOKSVILLE    CLEAR     74  72  93 CALM      30.08R
ZEPHYRHILLS    FAIR      68  68 100 CALM      30.08R
CLEARWATER     CLEAR     79  75  87 CALM      30.05S
TAMPA INTL     PTCLDY    81  72  74 CALM      30.06R
TAMPA EXEC     CLEAR     75  72  88 E3        30.06S
MACDILL AFB    CLEAR     75  73  94 E3        30.06R
ST PETERSBURG  CLEAR     82  74  76 CALM      30.04R
SARASOTA       CLEAR     79  73  82 CALM      30.04R
VENICE           N/A    N/A N/A N/A MISG        N/A

STATION/POSITION SKY/WX   TEMP    WIND        PRES    WAVE   SWELL
                          AIR SEA DIR/SP/G            HT/PER HT/PER
                          (F)     (DEG/KT/KT) (MB)    (FT/S) (FT/S)
CEDAR KEY                  83      10/  1/  3 1018.2F
28.5N   84.5W              85 87  340/  4/  4 1017.9R   1/ 8
27.3N   84.3W                 88                N/A     1
CLEARWATER BEACH           83 89  150/  2/  3 1017.3R
MIDDLE TAMPA BAY           82     180/  1/  2 1017.8S
VENICE                     77 88   60/  6/  7 1017.1R

$$
FLZ066-069-070-075>078-162-262-165-265-221100-
SOUTHWEST FLORIDA AND KEYS

CITY           SKY/WX    TMP DP  RH WIND       PRES   REMARKS
PUNTA GORDA    CLEAR     76  73  91 CALM      30.06R
FT MYERS       CLEAR     77  74  90 E3        30.04R
SOUTHWEST INTL CLEAR     76  73  91 CALM      30.04S
MARCO ISLAND   SUNNY     75  72  88 SE3       30.04S
MARATHON       CLEAR     84  78  82 E6        30.02F HX  95
KEY WEST NAS   CLOUDY    84  76  76 E9        30.03S
KEY WEST INTL  PTCLDY    84  76  76 E6        30.03F

STATION/POSITION SKY/WX   TEMP    WIND        PRES    WAVE   SWELL
                          AIR SEA DIR/SP/G            HT/PER HT/PER
                          (F)     (DEG/KT/KT) (MB)    (FT/S) (FT/S)
VENICE                     77 88   60/  6/  7 1017.1R
NAPLES                     78     110/  3/  5 1017.7S
DRY TORTUGAS               85      80/  6/  7 1016.6S
NW FL BAY                  85      70/  9/ 10 1017.4F
SAND KEY                   85      70/ 12/ 13 1016.8F
SOMBRERO KEY               85      80/  7/  8 1017.4F
LONG KEY                   85 89   90/  8/ 10 1018.0F
MOLASSES REEF              85 88  100/  9/ 10 1017.0F

$$
FLZ067-068-071>074-168-172>174-221100-
SOUTHEAST FLORIDA

CITY           SKY/WX    TMP DP  RH WIND       PRES   REMARKS
W PALM BEACH   PTCLDY    80  76  87 CALM      30.04S
FT LAUDER-EXEC CLEAR     81  77  88 CALM      30.03F
FT LAUDERDALE  PTCLDY    84  74  71 SE3       30.03S
POMPANO BEACH    N/A     84  76  76 SE3       30.04S
PEMBROKE PINES CLEAR     80  75  84 CALM      30.05S
OPA LOCKA      CLEAR     80  73  79 CALM      30.04S
MIAMI          PTCLDY    81  73  76 SE5       30.04S
WEST KENDALL   CLEAR     80  74  81 CALM      30.04S
HOMESTEAD      PTCLDY    79  75  88 N1        30.04S

STATION/POSITION SKY/WX   TEMP    WIND        PRES    WAVE   SWELL
                          AIR SEA DIR/SP/G            HT/PER HT/PER
                          (F)     (DEG/KT/KT) (MB)    (FT/S) (FT/S)
PORT EVERGLADES            83     200/  1/  2 1016.9
VIRGINIA KEY               84 89  120/  5/  8   N/A
LAKE WORTH                 82 87  320/  3/  4 1017.1S
FOWEY ROCKS                85 87  100/  8/  9 1017.5R
SETTLEMENT POINT           82     140/  6/  8 1018.1R

$$




USA.gov is the U.S. government's official web portal to all federal, state and local government web resources and services.